| time (UTC) | temp F | wind direction | speed MPH | gust MPH | rain 1hr in | rain 24hr in | rain mn in | humidity % | barometer mb |
| 20260904231421 | 78 | 10 | 1.0 | 0.0 | 0.00 | 0.01 | 0.44 | 90 | 975.3 |
| 20260904230740 | 78 | 10 | 0.0 | 0.0 | 0.00 | 0.01 | 0.44 | 90 | 975.2 |
| 20260904230103 | 77 | 10 | 0.0 | 0.0 | 0.00 | 0.01 | 0.44 | 90 | 975.1 |
| 20260904225423 | 77 | 10 | 0.0 | 0.0 | 0.00 | 0.01 | 0.44 | 90 | 975.1 |
| 20260904224915 | 77 | 10 | 0.0 | 0.0 | 0.00 | 0.01 | 0.44 | 90 | 975.0 |
| 20260904224746 | 77 | 10 | 0.0 | 0.0 | 0.00 | 0.01 | 0.44 | 90 | 975.0 |
| 20260904224105 | 77 | 10 | 0.0 | 0.0 | 0.00 | 0.01 | 0.44 | 89 | 974.9 |
| 20260904223534 | 77 | 10 | 4.0 | 0.0 | 0.00 | 0.01 | 0.44 | 90 | 974.9 |
| 20260904223428 | 77 | 10 | 4.0 | 0.0 | 0.00 | 0.01 | 0.44 | 90 | 974.9 |
| 20260904222748 | 78 | 46 | 5.0 | 5.0 | 0.00 | 0.01 | 0.44 | 90 | 974.6 |
| 20260904222110 | 78 | 18 | 5.0 | 0.0 | 0.00 | 0.01 | 0.44 | 89 | 974.7 |
| 20260904221430 | 78 | 332 | 3.0 | 3.0 | 0.00 | 0.01 | 0.44 | 89 | 974.6 |
| 20260904220753 | 78 | 312 | 0.0 | 0.0 | 0.00 | 0.01 | 0.44 | 87 | 974.7 |
| 20260904220112 | 78 | 330 | 2.0 | 5.0 | 0.00 | 0.01 | 0.44 | 87 | 974.9 |
| 20260904215435 | 78 | 354 | 6.0 | 4.0 | 0.00 | 0.01 | 0.44 | 87 | 975.0 |
| 20260904214755 | 78 | 321 | 0.0 | 0.0 | 0.00 | 0.01 | 0.44 | 90 | 975.0 |
| 20260904214118 | 77 | 321 | 4.0 | 0.0 | 0.00 | 0.01 | 0.44 | 91 | 975.1 |
| 20260904213437 | 77 | 0 | 3.0 | 0.0 | 0.00 | 0.01 | 0.44 | 90 | 975.1 |
| 20260904212800 | 77 | 339 | 0.0 | 0.0 | 0.00 | 0.01 | 0.44 | 91 | 975.2 |
| 20260904212120 | 77 | 293 | 0.0 | 0.0 | 0.00 | 0.01 | 0.44 | 91 | 975.1 |
| 20260904211443 | 77 | 293 | 0.0 | 0.0 | 0.00 | 0.01 | 0.44 | 91 | 975.2 |
| 20260904210802 | 77 | 293 | 0.0 | 0.0 | 0.00 | 0.01 | 0.44 | 91 | 975.3 |
| 20260904210125 | 77 | 293 | 0.0 | 0.0 | 0.00 | 0.01 | 0.44 | 90 | 975.4 |
| 20260904205445 | 77 | 239 | 0.0 | 0.0 | 0.00 | 0.01 | 0.44 | 90 | 975.4 |
| 20260904204808 | 77 | 239 | 0.0 | 0.0 | 0.00 | 0.01 | 0.44 | 91 | 975.4 |
| 20260904204127 | 77 | 222 | 1.0 | 5.0 | 0.00 | 0.01 | 0.44 | 91 | 975.6 |
| 20260904203450 | 77 | 307 | 0.0 | 0.0 | 0.00 | 0.01 | 0.44 | 92 | 975.6 |
| 20260904202810 | 77 | 314 | 4.0 | 3.0 | 0.00 | 0.01 | 0.44 | 91 | 975.7 |
| 20260904202133 | 77 | 312 | 0.0 | 0.0 | 0.00 | 0.01 | 0.44 | 92 | 975.8 |
| 20260904201452 | 77 | 312 | 0.0 | 0.0 | 0.00 | 0.01 | 0.44 | 92 | 975.8 |
| 20260904200815 | 76 | 228 | 0.0 | 0.0 | 0.00 | 0.01 | 0.44 | 94 | 975.8 |
| 20260904200135 | 76 | 228 | 0.0 | 0.0 | 0.00 | 0.01 | 0.44 | 93 | 976.0 |
| 20260904195458 | 76 | 221 | 0.0 | 0.0 | 0.00 | 0.01 | 0.44 | 94 | 976.2 |
| 20260904194817 | 76 | 229 | 5.0 | 4.0 | 0.00 | 0.01 | 0.44 | 94 | 976.3 |
| 20260904194142 | 76 | 197 | 5.0 | 6.0 | 0.00 | 0.01 | 0.44 | 95 | 976.2 |
| 20260904193500 | 76 | 219 | 5.0 | 7.0 | 0.00 | 0.01 | 0.44 | 93 | 976.2 |
| 20260904192142 | 76 | 203 | 2.0 | 0.0 | 0.00 | 0.01 | 0.44 | 94 | 976.1 |
| 20260904191507 | 76 | 359 | 0.0 | 1.0 | 0.00 | 0.01 | 0.44 | 93 | 975.9 |
| 20260904190825 | 76 | 131 | 0.0 | 0.0 | 0.00 | 0.01 | 0.44 | 93 | 975.9 |
| 20260904190148 | 77 | 131 | 0.0 | 0.0 | 0.00 | 0.01 | 0.44 | 92 | 976.0 |
| 20260904185543 | 76 | 131 | 0.0 | 0.0 | 0.00 | 0.01 | 0.44 | 92 | 975.8 |
| 20260904185509 | 76 | 131 | 0.0 | 0.0 | 0.00 | 0.01 | 0.44 | 92 | 975.8 |
| 20260904184831 | 76 | 131 | 0.0 | 0.0 | 0.00 | 0.01 | 0.44 | 92 | 975.7 |
| 20260904184246 | 77 | 131 | 0.0 | 0.0 | 0.00 | 0.01 | 0.44 | 92 | 975.6 |
| 20260904184150 | 77 | 131 | 0.0 | 0.0 | 0.00 | 0.01 | 0.44 | 92 | 975.6 |
| 20260904183545 | 77 | 131 | 0.0 | 0.0 | 0.00 | 0.01 | 0.44 | 93 | 975.7 |
| 20260904183513 | 77 | 131 | 0.0 | 0.0 | 0.00 | 0.01 | 0.44 | 93 | 975.7 |
| 20260904182833 | 76 | 131 | 0.0 | 0.0 | 0.00 | 0.01 | 0.44 | 94 | 975.8 |
| 20260904182246 | 76 | 131 | 0.0 | 0.0 | 0.00 | 0.01 | 0.44 | 95 | 975.8 |
| 20260904182156 | 76 | 131 | 0.0 | 0.0 | 0.00 | 0.01 | 0.44 | 95 | 975.8 |
| 20260904181549 | 75 | 150 | 0.0 | 0.0 | 0.00 | 0.01 | 0.44 | 94 | 975.9 |
| 20260904181516 | 75 | 150 | 0.0 | 0.0 | 0.00 | 0.01 | 0.44 | 94 | 975.9 |
| 20260904180839 | 75 | 150 | 0.0 | 0.0 | 0.00 | 0.01 | 0.44 | 95 | 976.2 |
| 20260904180158 | 75 | 150 | 0.0 | 0.0 | 0.00 | 0.01 | 0.44 | 97 | 976.3 |
| 20260904175637 | 74 | 148 | 3.0 | 0.0 | 0.00 | 0.01 | 0.44 | 98 | 976.5 |
| 20260904175521 | 74 | 148 | 3.0 | 0.0 | 0.00 | 0.01 | 0.44 | 98 | 976.5 |
| 20260904174942 | 74 | 129 | 0.0 | 0.0 | 0.00 | 0.01 | 0.44 | 100 | 976.4 |
| 20260904174841 | 74 | 129 | 0.0 | 0.0 | 0.00 | 0.01 | 0.44 | 100 | 976.4 |
| 20260904174246 | 73 | 180 | 4.0 | 3.0 | 0.00 | 0.01 | 0.44 | 100 | 976.6 |
| 20260904174204 | 73 | 180 | 4.0 | 3.0 | 0.00 | 0.01 | 0.44 | 100 | 976.6 |
| 20260904173616 | 73 | 184 | 0.0 | 5.0 | 0.00 | 0.01 | 0.44 | 100 | 976.7 |
| 20260904173524 | 73 | 184 | 0.0 | 5.0 | 0.00 | 0.01 | 0.44 | 100 | 976.7 |
| 20260904172847 | 73 | 149 | 0.0 | 0.0 | 0.00 | 0.01 | 0.44 | 100 | 976.6 |
| 20260904172250 | 73 | 179 | 2.0 | 4.0 | 0.00 | 0.01 | 0.44 | 100 | 976.6 |
| 20260904172206 | 73 | 179 | 2.0 | 4.0 | 0.00 | 0.01 | 0.44 | 100 | 976.6 |
| 20260904171640 | 72 | 176 | 1.0 | 3.0 | 0.00 | 0.01 | 0.44 | 100 | 976.6 |
| 20260904171529 | 72 | 176 | 1.0 | 3.0 | 0.00 | 0.01 | 0.44 | 100 | 976.6 |
| 20260904170921 | 72 | 127 | 0.0 | 0.0 | 0.00 | 0.01 | 0.44 | 100 | 976.9 |
| 20260904170849 | 72 | 127 | 0.0 | 0.0 | 0.00 | 0.01 | 0.44 | 100 | 976.9 |
| 20260904170306 | 71 | 127 | 0.0 | 0.0 | 0.00 | 0.01 | 0.44 | 100 | 976.9 |
| 20260904170212 | 71 | 127 | 0.0 | 0.0 | 0.00 | 0.01 | 0.44 | 100 | 976.9 |
| 20260904165612 | 71 | 127 | 0.0 | 0.0 | 0.01 | 0.01 | 0.44 | 100 | 976.9 |
| 20260904165532 | 71 | 127 | 0.0 | 0.0 | 0.01 | 0.01 | 0.44 | 100 | 976.9 |
| 20260904164855 | 71 | 127 | 0.0 | 0.0 | 0.01 | 0.01 | 0.44 | 100 | 977.0 |
| 20260904164246 | 71 | 127 | 1.0 | 0.0 | 0.01 | 0.01 | 0.44 | 100 | 977.3 |
| 20260904164214 | 71 | 127 | 1.0 | 0.0 | 0.01 | 0.01 | 0.44 | 100 | 977.3 |
| 20260904163537 | 71 | 15 | 0.0 | 0.0 | 0.01 | 0.01 | 0.44 | 100 | 977.2 |
| 20260904162857 | 70 | 15 | 0.0 | 0.0 | 0.01 | 0.01 | 0.44 | 100 | 977.5 |
| 20260904162220 | 70 | 15 | 0.0 | 0.0 | 0.01 | 0.01 | 0.44 | 100 | 977.2 |
| 20260904161540 | 70 | 15 | 0.0 | 0.0 | 0.01 | 0.01 | 0.44 | 100 | 977.1 |
| 20260904160222 | 70 | 15 | 0.0 | 0.0 | 0.01 | 0.01 | 0.44 | 100 | 977.5 |
| 20260904155642 | 70 | 15 | 0.0 | 0.0 | 0.04 | 0.01 | 0.44 | 100 | 977.4 |
| 20260904155545 | 70 | 15 | 0.0 | 0.0 | 0.04 | 0.01 | 0.44 | 100 | 977.4 |
| 20260904154943 | 70 | 15 | 0.0 | 0.0 | 0.04 | 0.01 | 0.44 | 100 | 977.3 |
| 20260904154905 | 70 | 15 | 0.0 | 0.0 | 0.04 | 0.01 | 0.44 | 100 | 977.3 |
| 20260904154301 | 69 | 15 | 0.0 | 0.0 | 0.04 | 0.01 | 0.44 | 100 | 977.4 |
| 20260904154228 | 69 | 15 | 0.0 | 0.0 | 0.04 | 0.01 | 0.44 | 100 | 977.4 |
| 20260904152911 | 69 | 15 | 0.0 | 0.0 | 0.04 | 0.01 | 0.44 | 100 | 977.0 |
| 20260904152230 | 69 | 15 | 0.0 | 0.0 | 0.04 | 0.01 | 0.44 | 100 | 977.4 |
| 20260904151553 | 69 | 15 | 0.0 | 0.0 | 0.04 | 0.01 | 0.43 | 100 | 977.7 |
| 20260904150913 | 69 | 15 | 0.0 | 0.0 | 0.04 | 0.01 | 0.43 | 100 | 977.2 |
| 20260904150236 | 69 | 15 | 0.0 | 0.0 | 0.04 | 0.01 | 0.43 | 100 | 976.6 |
| 20260904145556 | 69 | 15 | 0.0 | 0.0 | 0.08 | 0.01 | 0.43 | 100 | 976.6 |
| 20260904144919 | 69 | 15 | 0.0 | 0.0 | 0.08 | 0.01 | 0.43 | 100 | 976.7 |
| 20260904144238 | 69 | 15 | 0.0 | 0.0 | 0.08 | 0.01 | 0.42 | 100 | 976.9 |
| 20260904143635 | 69 | 15 | 0.0 | 0.0 | 0.08 | 0.01 | 0.42 | 100 | 976.9 |
| 20260904143601 | 69 | 15 | 0.0 | 0.0 | 0.08 | 0.01 | 0.42 | 100 | 976.9 |
| 20260904142921 | 69 | 15 | 0.0 | 0.0 | 0.08 | 0.01 | 0.41 | 100 | 977.1 |
| 20260904142244 | 69 | 15 | 0.0 | 0.0 | 0.08 | 0.01 | 0.41 | 100 | 976.9 |
| 20260904140927 | 69 | 15 | 0.0 | 0.0 | 0.08 | 0.01 | 0.40 | 100 | 977.3 |
| 20260904135609 | 69 | 354 | 1.0 | 8.0 | 0.09 | 0.01 | 0.39 | 100 | 977.7 |
| 20260904134929 | 69 | 11 | 1.0 | 6.0 | 0.09 | 0.01 | 0.38 | 100 | 977.9 |
| 20260904134359 | 69 | 232 | 0.0 | 0.0 | 0.09 | 0.01 | 0.37 | 100 | 977.3 |
| 20260904134252 | 69 | 232 | 0.0 | 0.0 | 0.09 | 0.01 | 0.37 | 100 | 977.3 |
| 20260904132934 | 69 | 232 | 0.0 | 0.0 | 0.09 | 0.01 | 0.36 | 100 | 975.9 |
| 20260904132253 | 69 | 195 | 1.0 | 0.0 | 0.09 | 0.01 | 0.35 | 100 | 975.6 |
| 20260904131743 | 69 | 228 | 3.0 | 0.0 | 0.09 | 0.01 | 0.34 | 100 | 976.0 |
| 20260904131616 | 69 | 228 | 3.0 | 0.0 | 0.09 | 0.01 | 0.34 | 100 | 976.0 |
| 20260904131059 | 69 | 169 | 2.0 | 0.0 | 0.09 | 0.01 | 0.33 | 100 | 975.6 |
| 20260904130937 | 69 | 169 | 2.0 | 0.0 | 0.09 | 0.01 | 0.33 | 100 | 975.6 |
| 20260904130258 | 69 | 183 | 0.0 | 6.0 | 0.09 | 0.01 | 0.32 | 100 | 975.6 |
| 20260904125701 | 69 | 186 | 7.0 | 0.0 | 0.11 | 0.01 | 0.31 | 100 | 975.9 |
| 20260904125618 | 69 | 186 | 7.0 | 0.0 | 0.11 | 0.01 | 0.31 | 100 | 975.9 |
| 20260904124941 | 69 | 187 | 6.0 | 7.0 | 0.11 | 0.01 | 0.30 | 100 | 976.2 |
| 20260904124411 | 69 | 190 | 0.0 | 0.0 | 0.11 | 0.01 | 0.29 | 100 | 976.5 |
| 20260904124339 | 69 | 190 | 0.0 | 0.0 | 0.11 | 0.01 | 0.29 | 100 | 976.5 |
| 20260904124300 | 69 | 190 | 0.0 | 0.0 | 0.11 | 0.01 | 0.29 | 100 | 976.5 |
| 20260904123821 | 69 | 190 | 0.0 | 0.0 | 0.11 | 0.01 | 0.28 | 100 | 977.6 |
| 20260904123624 | 69 | 190 | 0.0 | 0.0 | 0.11 | 0.01 | 0.28 | 100 | 977.6 |
| 20260904121627 | 69 | 1 | 0.0 | 0.0 | 0.11 | 0.01 | 0.24 | 100 | 978.6 |
| 20260904120310 | 69 | 1 | 0.0 | 0.0 | 0.11 | 0.01 | 0.22 | 100 | 978.3 |
| 20260904115633 | 69 | 1 | 0.0 | 0.0 | 0.06 | 0.01 | 0.21 | 100 | 978.2 |
| 20260904114952 | 69 | 1 | 0.0 | 0.0 | 0.06 | 0.01 | 0.20 | 100 | 977.9 |
| 20260904113635 | 69 | 1 | 0.0 | 0.0 | 0.06 | 0.01 | 0.18 | 100 | 978.4 |
| 20260904110325 | 69 | 1 | 0.0 | 0.0 | 0.06 | 0.01 | 0.11 | 100 | 978.6 |
| 20260904104325 | 69 | 1 | 0.0 | 0.0 | 0.03 | 0.01 | 0.09 | 100 | 978.1 |
| 20260904103648 | 69 | 1 | 0.0 | 0.0 | 0.03 | 0.01 | 0.08 | 100 | 977.7 |
| 20260904103008 | 68 | 1 | 0.0 | 0.0 | 0.03 | 0.01 | 0.08 | 100 | 977.3 |
| 20260904102331 | 68 | 1 | 0.0 | 0.0 | 0.03 | 0.01 | 0.07 | 100 | 977.0 |
| 20260904101650 | 68 | 1 | 0.0 | 0.0 | 0.03 | 0.01 | 0.07 | 100 | 976.9 |
| 20260904101013 | 68 | 1 | 0.0 | 0.0 | 0.03 | 0.01 | 0.06 | 100 | 976.7 |
| 20260904100333 | 68 | 1 | 0.0 | 0.0 | 0.03 | 0.01 | 0.06 | 100 | 976.7 |
| 20260904095656 | 68 | 1 | 0.0 | 0.0 | 0.02 | 0.01 | 0.05 | 100 | 976.5 |
| 20260904095015 | 68 | 1 | 0.0 | 0.0 | 0.02 | 0.01 | 0.05 | 100 | 976.4 |
| 20260904094338 | 69 | 1 | 0.0 | 0.0 | 0.02 | 0.01 | 0.05 | 100 | 976.3 |
| 20260904093658 | 68 | 1 | 0.0 | 0.0 | 0.02 | 0.01 | 0.04 | 100 | 976.6 |
| 20260904093021 | 69 | 359 | 6.0 | 7.0 | 0.02 | 0.01 | 0.04 | 100 | 977.0 |
| 20260904092340 | 69 | 318 | 6.0 | 5.0 | 0.02 | 0.01 | 0.03 | 100 | 977.0 |
| 20260904091703 | 69 | 349 | 9.0 | 10.0 | 0.02 | 0.01 | 0.03 | 100 | 976.4 |
| 20260904091023 | 69 | 172 | 3.0 | 4.0 | 0.02 | 0.01 | 0.02 | 100 | 975.5 |
| 20260904090346 | 69 | 174 | 5.0 | 6.0 | 0.02 | 0.01 | 0.02 | 100 | 975.6 |
| 20260904085705 | 69 | 179 | 0.0 | 0.0 | 0.00 | 0.01 | 0.02 | 100 | 976.0 |
| 20260904085028 | 68 | 42 | 0.0 | 0.0 | 0.00 | 0.01 | 0.01 | 100 | 975.7 |
| 20260904084348 | 68 | 195 | 0.0 | 0.0 | 0.00 | 0.01 | 0.01 | 100 | 976.2 |
| 20260904083711 | 68 | 141 | 0.0 | 0.0 | 0.00 | 0.01 | 0.00 | 100 | 976.5 |
| 20260904080355 | 68 | 141 | 0.0 | 0.0 | 0.00 | 0.01 | 0.00 | 100 | 976.5 |
| 20260904075718 | 68 | 141 | 0.0 | 0.0 | 0.00 | 0.01 | 0.00 | 100 | 976.5 |
| 20260904075415 | 68 | 141 | 0.0 | 0.0 | 0.00 | 0.01 | 0.00 | 100 | 976.2 |
| 20260904075038 | 68 | 141 | 0.0 | 0.0 | 0.00 | 0.01 | 0.00 | 100 | 976.2 |
| 20260904074545 | 68 | 141 | 0.0 | 0.0 | 0.00 | 0.01 | 0.00 | 100 | 976.2 |
| 20260904074401 | 68 | 141 | 0.0 | 0.0 | 0.00 | 0.01 | 0.00 | 100 | 976.2 |
| 20260904073720 | 68 | 141 | 0.0 | 0.0 | 0.00 | 0.01 | 0.00 | 100 | 976.3 |
| 20260904072403 | 68 | 141 | 0.0 | 0.0 | 0.00 | 0.01 | 0.00 | 100 | 976.6 |
| 20260904071726 | 68 | 141 | 1.0 | 0.0 | 0.00 | 0.01 | 0.00 | 100 | 976.7 |
| 20260904071045 | 68 | 359 | 0.0 | 0.0 | 0.00 | 0.01 | 0.00 | 100 | 977.0 |
| 20260904070408 | 68 | 359 | 0.0 | 0.0 | 0.00 | 0.01 | 0.00 | 100 | 976.8 |
| 20260904065728 | 68 | 359 | 0.0 | 0.0 | 0.00 | 0.01 | 0.00 | 100 | 977.2 |
| 20260904065049 | 67 | 359 | 0.0 | 0.0 | 0.00 | 0.01 | 0.00 | 100 | 977.4 |
| 20260904064410 | 67 | 359 | 0.0 | 0.0 | 0.00 | 0.01 | 0.00 | 100 | 977.5 |
| 20260904063733 | 67 | 359 | 0.0 | 0.0 | 0.00 | 0.01 | 0.00 | 100 | 977.5 |
| 20260904063053 | 67 | 359 | 0.0 | 0.0 | 0.00 | 0.01 | 0.00 | 100 | 977.3 |
| 20260904062414 | 67 | 359 | 0.0 | 0.0 | 0.00 | 0.01 | 0.00 | 100 | 977.2 |
| 20260904061057 | 67 | 359 | 0.0 | 0.0 | 0.00 | 0.01 | 0.00 | 100 | 977.2 |
| 20260904060417 | 67 | 359 | 0.0 | 0.0 | 0.00 | 0.01 | 0.00 | 100 | 977.5 |
| 20260904055416 | 67 | 359 | 0.0 | 0.0 | 0.00 | 0.01 | 0.00 | 100 | 977.5 |
| 20260904055100 | 67 | 359 | 0.0 | 0.0 | 0.00 | 0.01 | 0.00 | 100 | 977.5 |
| 20260904053942 | 68 | 359 | 0.0 | 0.0 | 0.00 | 0.01 | 0.00 | 100 | 977.6 |
| 20260904053742 | 68 | 359 | 0.0 | 0.0 | 0.00 | 0.01 | 0.00 | 100 | 977.6 |
| 20260904053105 | 68 | 359 | 0.0 | 0.0 | 0.00 | 0.01 | 0.00 | 100 | 977.6 |
| 20260904051747 | 68 | 359 | 0.0 | 0.0 | 0.00 | 0.01 | 0.00 | 100 | 978.0 |
| 20260904051226 | 68 | 359 | 0.0 | 0.0 | 0.00 | 0.01 | 0.00 | 100 | 978.1 |
| 20260904051106 | 68 | 359 | 0.0 | 0.0 | 0.00 | 0.01 | 0.00 | 100 | 978.1 |
| 20260904050430 | 68 | 359 | 0.0 | 0.0 | 0.00 | 0.01 | 0.00 | 100 | 978.2 |
| 20260904045749 | 68 | 359 | 0.0 | 0.0 | 0.00 | 0.01 | 0.00 | 100 | 978.0 |
| 20260904045112 | 67 | 359 | 0.0 | 0.0 | 0.00 | 0.01 | 0.00 | 100 | 977.9 |
| 20260904044503 | 68 | 359 | 0.0 | 0.0 | 0.00 | 0.01 | 0.00 | 100 | 977.6 |
| 20260904044432 | 68 | 359 | 0.0 | 0.0 | 0.00 | 0.01 | 0.00 | 100 | 977.6 |
| 20260904043114 | 68 | 359 | 0.0 | 0.0 | 0.00 | 0.01 | 0.00 | 100 | 977.5 |
| 20260904041756 | 68 | 359 | 0.0 | 0.0 | 0.00 | 0.01 | 0.00 | 100 | 977.7 |
| 20260904035121 | 68 | 359 | 0.0 | 0.0 | 0.00 | 0.01 | 0.01 | 100 | 978.1 |
| 20260904033802 | 68 | 359 | 0.0 | 0.0 | 0.00 | 0.01 | 0.01 | 100 | 978.1 |
| 20260904030523 | 69 | 359 | 0.0 | 0.0 | 0.00 | 0.01 | 0.01 | 100 | 978.0 |
| 20260904030451 | 69 | 359 | 0.0 | 0.0 | 0.00 | 0.01 | 0.01 | 100 | 978.0 |
| 20260904025810 | 69 | 359 | 0.0 | 0.0 | 0.00 | 0.01 | 0.01 | 100 | 977.7 |
| 20260904025133 | 69 | 359 | 0.0 | 0.0 | 0.00 | 0.01 | 0.01 | 100 | 977.7 |
| 20260904023135 | 70 | 359 | 0.0 | 0.0 | 0.00 | 0.01 | 0.01 | 100 | 977.7 |
| 20260904021140 | 70 | 359 | 0.0 | 0.0 | 0.00 | 0.01 | 0.01 | 100 | 977.6 |
| 20260904015140 | 71 | 359 | 0.0 | 0.0 | 0.00 | 0.01 | 0.01 | 100 | 977.4 |
| 20260904014504 | 71 | 359 | 0.0 | 0.0 | 0.00 | 0.01 | 0.01 | 100 | 977.4 |
| 20260904012506 | 72 | 359 | 0.0 | 0.0 | 0.00 | 0.01 | 0.01 | 100 | 977.0 |
| 20260904011828 | 72 | 359 | 0.0 | 0.0 | 0.00 | 0.01 | 0.01 | 100 | 977.2 |
| 20260904010511 | 73 | 359 | 0.0 | 0.0 | 0.00 | 0.01 | 0.01 | 100 | 976.8 |
| 20260904005903 | 73 | 359 | 0.0 | 0.0 | 0.00 | 0.01 | 0.01 | 100 | 976.7 |
| 20260904005830 | 73 | 359 | 0.0 | 0.0 | 0.00 | 0.01 | 0.01 | 100 | 976.7 |
| 20260904005325 | 73 | 359 | 0.0 | 0.0 | 0.00 | 0.01 | 0.01 | 100 | 976.6 |
| 20260904005152 | 73 | 359 | 0.0 | 0.0 | 0.00 | 0.01 | 0.01 | 100 | 976.6 |
| 20260904004512 | 74 | 359 | 0.0 | 0.0 | 0.00 | 0.01 | 0.01 | 99 | 976.4 |
| 20260904003154 | 74 | 359 | 0.0 | 0.0 | 0.00 | 0.01 | 0.01 | 98 | 976.3 |
| 20260904002517 | 74 | 359 | 0.0 | 0.0 | 0.00 | 0.01 | 0.01 | 98 | 976.2 |
| 20260904001159 | 75 | 359 | 0.0 | 0.0 | 0.00 | 0.01 | 0.01 | 97 | 976.0 |
| 20260903235842 | 75 | 17 | 0.0 | 0.0 | 0.00 | 0.01 | 0.01 | 97 | 976.0 |
| 20260903233843 | 76 | 1 | 0.0 | 0.0 | 0.00 | 0.01 | 0.01 | 95 | 975.8 |
| 20260903233245 | 77 | 280 | 1.0 | 0.0 | 0.00 | 0.01 | 0.01 | 94 | 975.4 |
| 20260903233206 | 77 | 280 | 1.0 | 0.0 | 0.00 | 0.01 | 0.01 | 94 | 975.4 |
| 20260903232557 | 77 | 359 | 0.0 | 0.0 | 0.00 | 0.01 | 0.01 | 93 | 975.1 |